| time (UTC) | temp F | wind direction | speed MPH | gust MPH | rain 1hr in | rain 24hr in | rain mn in | humidity % | barometer mb |
| 20260831230118 | 97 | 101 | 4.0 | 9.0 | 0.00 | 0.00 | 0.00 | 48 | 1011.8 |
| 20260831224530 | 97 | 102 | 5.0 | 10.0 | 0.00 | 0.00 | 0.00 | 49 | 1011.9 |
| 20260831223020 | 97 | 155 | 3.0 | 5.0 | 0.00 | 0.00 | 0.00 | 49 | 1012.0 |
| 20260831221554 | 97 | 153 | 3.0 | 11.0 | 0.00 | 0.00 | 0.00 | 50 | 1012.1 |
| 20260831220055 | 97 | 78 | 4.0 | 11.0 | 0.00 | 0.00 | 0.00 | 51 | 1012.1 |
| 20260831214537 | 97 | 94 | 8.0 | 13.0 | 0.00 | 0.00 | 0.00 | 51 | 1012.3 |
| 20260831213038 | 98 | 60 | 4.0 | 10.0 | 0.00 | 0.00 | 0.00 | 52 | 1012.3 |
| 20260831211602 | 97 | 76 | 2.0 | 7.0 | 0.00 | 0.00 | 0.00 | 54 | 1012.5 |
| 20260831210052 | 97 | 132 | 4.0 | 11.0 | 0.00 | 0.00 | 0.00 | 55 | 1012.7 |
| 20260831204515 | 97 | 58 | 3.0 | 13.0 | 0.00 | 0.00 | 0.00 | 56 | 1012.9 |
| 20260831203046 | 97 | 166 | 3.0 | 11.0 | 0.00 | 0.00 | 0.00 | 57 | 1013.2 |
| 20260831201528 | 96 | 139 | 8.0 | 14.0 | 0.00 | 0.00 | 0.00 | 59 | 1013.4 |
| 20260831200038 | 96 | 216 | 4.0 | 10.0 | 0.00 | 0.00 | 0.00 | 60 | 1013.6 |
| 20260831194615 | 95 | 142 | 7.0 | 14.0 | 0.00 | 0.00 | 0.00 | 62 | 1013.9 |
| 20260831193034 | 94 | 115 | 5.0 | 13.0 | 0.00 | 0.00 | 0.00 | 63 | 1014.1 |
| 20260831191543 | 94 | 126 | 4.0 | 9.0 | 0.00 | 0.00 | 0.00 | 65 | 1014.3 |
| 20260831190029 | 94 | 129 | 7.0 | 13.0 | 0.00 | 0.00 | 0.00 | 66 | 1014.6 |
| 20260831184532 | 94 | 165 | 8.0 | 13.0 | 0.00 | 0.00 | 0.00 | 68 | 1014.8 |
| 20260831183100 | 93 | 115 | 6.0 | 13.0 | 0.00 | 0.00 | 0.00 | 70 | 1015.0 |
| 20260831181539 | 93 | 100 | 9.0 | 16.0 | 0.00 | 0.00 | 0.00 | 71 | 1015.2 |
| 20260831180058 | 92 | 109 | 7.0 | 14.0 | 0.00 | 0.00 | 0.00 | 73 | 1015.3 |
| 20260831174549 | 92 | 99 | 6.0 | 10.0 | 0.00 | 0.00 | 0.00 | 74 | 1015.4 |
| 20260831173021 | 91 | 123 | 3.0 | 12.0 | 0.00 | 0.00 | 0.00 | 75 | 1015.7 |
| 20260831171537 | 91 | 108 | 3.0 | 11.0 | 0.00 | 0.00 | 0.00 | 76 | 1015.8 |
| 20260831170031 | 90 | 221 | 1.0 | 7.0 | 0.00 | 0.00 | 0.00 | 78 | 1016.0 |
| 20260831164559 | 89 | 202 | 4.0 | 9.0 | 0.00 | 0.00 | 0.00 | 79 | 1016.2 |
| 20260831163018 | 89 | 151 | 1.0 | 8.0 | 0.00 | 0.00 | 0.00 | 79 | 1016.1 |
| 20260831161516 | 88 | 151 | 1.0 | 8.0 | 0.00 | 0.00 | 0.00 | 80 | 1016.1 |
| 20260831160103 | 87 | 90 | 2.0 | 7.0 | 0.00 | 0.00 | 0.00 | 81 | 1016.1 |
| 20260831154529 | 87 | 189 | 1.0 | 9.0 | 0.00 | 0.00 | 0.00 | 81 | 1015.9 |
| 20260831153026 | 86 | 75 | 1.0 | 9.0 | 0.00 | 0.00 | 0.00 | 81 | 1016.0 |
| 20260831151528 | 85 | 244 | 3.0 | 7.0 | 0.00 | 0.00 | 0.00 | 81 | 1016.0 |
| 20260831150032 | 84 | 246 | 5.0 | 9.0 | 0.00 | 0.00 | 0.00 | 81 | 1016.1 |
| 20260831144532 | 83 | 216 | 2.0 | 6.0 | 0.00 | 0.00 | 0.00 | 81 | 1016.0 |
| 20260831143026 | 82 | 205 | 3.0 | 7.0 | 0.00 | 0.00 | 0.00 | 80 | 1016.0 |
| 20260831141502 | 81 | 153 | 1.0 | 6.0 | 0.00 | 0.00 | 0.00 | 80 | 1016.0 |
| 20260831140033 | 80 | 230 | 0.0 | 5.0 | 0.00 | 0.00 | 0.00 | 79 | 1015.8 |
| 20260831134505 | 79 | 216 | 0.0 | 1.0 | 0.00 | 0.00 | 0.00 | 79 | 1015.7 |
| 20260831133054 | 78 | 214 | 0.0 | 1.0 | 0.00 | 0.00 | 0.00 | 79 | 1015.6 |
| 20260831131501 | 77 | 215 | 1.0 | 3.0 | 0.00 | 0.00 | 0.00 | 78 | 1015.5 |
| 20260831130105 | 75 | 215 | 0.0 | 0.0 | 0.00 | 0.00 | 0.00 | 78 | 1015.3 |
| 20260831124534 | 74 | 215 | 0.0 | 0.0 | 0.00 | 0.00 | 0.00 | 77 | 1015.1 |
| 20260831123014 | 74 | 215 | 0.0 | 1.0 | 0.00 | 0.00 | 0.00 | 76 | 1015.1 |
| 20260831121522 | 75 | 216 | 0.0 | 0.0 | 0.00 | 0.00 | 0.00 | 76 | 1014.8 |
| 20260831120030 | 75 | 216 | 0.0 | 1.0 | 0.00 | 0.00 | 0.00 | 75 | 1014.7 |
| 20260831114513 | 75 | 215 | 1.0 | 3.0 | 0.00 | 0.00 | 0.00 | 75 | 1014.7 |
| 20260831113033 | 75 | 215 | 1.0 | 3.0 | 0.00 | 0.00 | 0.00 | 75 | 1014.6 |
| 20260831111535 | 76 | 215 | 2.0 | 4.0 | 0.00 | 0.00 | 0.00 | 74 | 1014.5 |
| 20260831030005 | 83 | 149 | 4.0 | 7.0 | 0.00 | 0.00 | 0.00 | 51 | 1013.1 |
| 20260831024525 | 84 | 182 | 2.0 | 4.0 | 0.00 | 0.00 | 0.00 | 50 | 1012.7 |
| 20260831023008 | 85 | 176 | 2.0 | 5.0 | 0.00 | 0.00 | 0.00 | 49 | 1012.5 |
| 20260831021519 | 86 | 178 | 1.0 | 4.0 | 0.00 | 0.00 | 0.00 | 48 | 1012.3 |
| 20260831020016 | 87 | 164 | 2.0 | 4.0 | 0.00 | 0.00 | 0.00 | 48 | 1012.2 |
| 20260831014500 | 88 | 166 | 2.0 | 5.0 | 0.00 | 0.00 | 0.00 | 47 | 1012.1 |
| 20260831013018 | 89 | 162 | 3.0 | 7.0 | 0.00 | 0.00 | 0.00 | 47 | 1012.0 |
| 20260831011530 | 90 | 145 | 3.0 | 8.0 | 0.00 | 0.00 | 0.00 | 47 | 1011.9 |
| 20260831010034 | 91 | 134 | 4.0 | 8.0 | 0.00 | 0.00 | 0.00 | 46 | 1011.8 |
| 20260831004512 | 92 | 105 | 4.0 | 9.0 | 0.00 | 0.00 | 0.00 | 46 | 1011.7 |
| 20260831003002 | 93 | 111 | 4.0 | 8.0 | 0.00 | 0.00 | 0.00 | 46 | 1011.7 |
| 20260831001537 | 94 | 135 | 2.0 | 8.0 | 0.00 | 0.00 | 0.00 | 46 | 1011.7 |
| 20260831000006 | 94 | 130 | 6.0 | 11.0 | 0.00 | 0.00 | 0.00 | 46 | 1011.7 |
| 20260830234537 | 95 | 136 | 5.0 | 11.0 | 0.00 | 0.00 | 0.00 | 46 | 1011.8 |
| 20260830233103 | 96 | 162 | 4.0 | 15.0 | 0.00 | 0.00 | 0.00 | 47 | 1011.7 |
| 20260830231602 | 97 | 136 | 10.0 | 14.0 | 0.00 | 0.00 | 0.00 | 47 | 1011.7 |